Location: ???? ????
(41.4149°N, 22.8816°E)
Time: 14:56:58
(UTC+00:00)

Cosmos 1850 Rocket - Pass Details

Date: 14 July 2020
Orbit: 754 x 785 km, 74.0° (Epoch: 04 August)

Event Time Altitude Azimuth Distance (km) Brightness Sun altitude
Exits shadow 01:06:20 22° 177° (S) 1,644 5.3 -17.8°
Maximum altitude 01:09:38 58° 105° (ESE) 911 4.5 -17.4°
Drops below altitude 10° 01:14:52 10° 27° (NNE) 2,350 7.8 -16.8°
Sets 01:17:18 0° 24° (NNE) 3,280 8.8 -16.5°
